Content
SEND FEEDBACK

Daily
Averages
Monthly
Summary
France

TOULOUSE, FRANCE


Home > Europe > France
Elevation: 538 feet     Latitude: 43 33N     Longitude: 001 23E

WEATHER
 
SELECT A DAY
Number of Records: 277,573;   Date Range: 7/1/96 - 4/21/13
 
SHARE

PRINT THIS DATA

[ ← Previous Day ]
WEATHER ALMANAC - FEBRUARY 3, 2013
[ Next Day → ]
[ °C ]   °F
Weather ElementAverageHighLow
Temperature38.4 °F42.8 °F (2:30 pm)33.8 °F (5:30 am)
Dewpoint28.3 °F30.2 °F (1:30 am)26.6 °F (2:30 pm)
Humidity67.1 %81 % (5:30 am)51 % (7:00 pm)
Barometer30.35 in30.45 in (11:30 am)30.12 in (12:30 am)
Wind Speed15.5 mph24.2 mph (12:30 am)
Weather ElementAverage
Visibility7.8 mi
Wind DirectionWNW (281.4 °)

Weather ElementTotal
Precipitation---
Heating Degree Days26.7 (Base 65)
Averaged from 51 records on February 3, 2013
WEATHER CONDITIONS BREAKOUT
WIND DIRECTION BREAKOUT
WEATHER BY HOUR - FEBRUARY 3, 2013
[ °C ]   °F
Local TimeTemperatureDewpointHumidityBarometerVisibilityWind DirectionWind SpeedGust SpeedPrecipitationEventsConditions
12:30 AM37.4 °F28.4 °F70 %30.12 in6.2 miNW (310°)24.2 mphScattered Clouds
1:00 AM37.0 °F29.0 °F62 %30.19 in37.0 miNW (310°)19.6 mphClear
1:00 AM37.4 °F28.4 °F70 %30.15 in6.2 miNW (310°)19.6 mphMostly Cloudy
1:30 AM37.4 °F30.2 °F75 %30.18 in6.2 miNW (310°)20.7 mphMostly Cloudy
2:00 AM37.4 °F28.4 °F70 %30.18 in6.2 miNW (310°)20.7 mph
2:30 AM37.4 °F28.4 °F70 %30.18 in6.2 miNW (310°)21.9 mph
3:00 AM35.6 °F28.4 °F75 %30.18 in6.2 miNW (310°)20.7 mph
3:30 AM35.6 °F28.4 °F75 %30.18 in6.2 miNW (310°)21.9 mph
4:00 AM35.6 °F28.4 °F75 %30.21 in6.2 miWNW (300°)21.9 mphPartly Cloudy
4:30 AM35.6 °F28.4 °F75 %30.21 in6.2 miWNW (300°)18.4 mph
5:00 AM35.6 °F28.4 °F75 %30.24 in6.2 miWNW (290°)17.3 mphPartly Cloudy
5:30 AM33.8 °F28.4 °F81 %30.24 in6.2 miWNW (290°)13.8 mphScattered Clouds
6:00 AM33.8 °F28.4 °F81 %30.27 in6.2 miWNW (290°)19.6 mphPartly Cloudy
6:30 AM33.8 °F28.4 °F81 %30.27 in6.2 miWest (280°)18.4 mphMostly Cloudy
7:00 AM34.0 °F28.0 °F72 %30.34 in19.0 miWest (280°)19.6 mphClear
7:00 AM33.8 °F28.4 °F81 %30.30 in6.2 miWest (280°)19.6 mphScattered Clouds
7:30 AM33.8 °F28.4 °F81 %30.30 in6.2 miWest (280°)17.3 mphPartly Cloudy
8:00 AM33.8 °F28.4 °F81 %30.33 in6.2 miWest (270°)16.1 mphPartly Cloudy
8:30 AM33.8 °F28.4 °F81 %30.36 in6.2 miWest (260°)16.1 mph
9:00 AM33.8 °F28.4 °F81 %30.39 in6.2 miWest (260°)15.0 mphPartly Cloudy
9:30 AM33.8 °F28.4 °F81 %30.39 in6.2 miWest (270°)18.4 mphPartly Cloudy
10:00 AM35.6 °F30.2 °F81 %30.42 in6.2 miWest (270°)18.4 mph
10:30 AM37.4 °F30.2 °F75 %30.42 in6.2 miWest (280°)16.1 mph
11:00 AM39.2 °F30.2 °F70 %30.42 in6.2 miWest (280°)17.3 mph
11:30 AM39.2 °F30.2 °F70 %30.45 in6.2 miWest (270°)16.1 mphPartly Cloudy
12:00 PM41.0 °F30.2 °F65 %30.42 in6.2 miWNW (290°)15.0 mphMostly Cloudy
12:30 PM41.0 °F30.2 °F65 %30.42 in6.2 miWest (280°)17.3 mphScattered Clouds
1:00 PM41.0 °F29.0 °F52 %30.45 in25.0 miWest (280°)16.1 mphClear
1:00 PM41.0 °F30.2 °F65 %30.42 in6.2 miWest (280°)16.1 mphMostly Cloudy
1:30 PM41.0 °F30.2 °F65 %30.42 in6.2 miWest (280°)16.1 mphMostly Cloudy
2:00 PM41.0 °F28.4 °F61 %30.42 in6.2 miWest (280°)15.0 mphOvercast
2:30 PM42.8 °F26.6 °F53 %30.39 in6.2 miWest (280°)12.7 mphMostly Cloudy
3:00 PM42.8 °F26.6 °F53 %30.39 in6.2 miWest (280°)13.8 mphMostly Cloudy
3:30 PM42.8 °F26.6 °F53 %30.39 in6.2 miWest (280°)16.1 mphOvercast
4:00 PM42.8 °F26.6 °F53 %30.39 in6.2 miWest (280°)15.0 mphMostly Cloudy
4:30 PM42.8 °F26.6 °F53 %30.39 in6.2 miWNW (300°)15.0 mphMostly Cloudy
5:00 PM42.8 °F28.4 °F57 %30.39 in6.2 miWNW (290°)12.7 mphPartly Cloudy
5:30 PM41.0 °F26.6 °F57 %30.39 in6.2 miWNW (290°)12.7 mphPartly Cloudy
6:00 PM41.0 °F26.6 °F57 %30.39 in6.2 miWest (280°)10.4 mph
6:30 PM39.2 °F26.6 °F61 %30.42 in6.2 miWest (280°)5.8 mph
7:00 PM39.0 °F27.0 °F51 %30.45 in25.0 miWest (270°)5.8 mphClear
7:00 PM39.2 °F26.6 °F61 %30.42 in6.2 miWest (270°)5.8 mph
7:30 PM39.2 °F28.4 °F65 %30.42 in6.2 miWest (270°)8.1 mph
8:00 PM39.2 °F26.6 °F61 %30.42 in6.2 miWest (270°)10.4 mph
8:30 PM41.0 °F26.6 °F57 %30.42 in6.2 miWest (270°)12.7 mphPartly Cloudy
9:00 PM41.0 °F28.4 °F61 %30.45 in6.2 miWest (270°)13.8 mphMostly Cloudy
9:30 PM41.0 °F28.4 °F61 %30.42 in6.2 miWest (260°)12.7 mphMostly Cloudy
10:00 PM41.0 °F28.4 °F61 %30.42 in6.2 miWSW (250°)10.4 mphMostly Cloudy
10:30 PM41.0 °F28.4 °F61 %30.45 in6.2 miWSW (240°)9.2 mph
11:00 PM41.0 °F28.4 °F61 %30.42 in6.2 miWSW (250°)11.5 mph
11:30 PM41.0 °F28.4 °F61 %30.42 in6.2 miWSW (250°)11.5 mph
Hourly data recorded from LFBF, located miles away from Toulouse, France







STORIES FROM OUR PARTNERS